Погода в Ляковой

Россия / Новгородская область     58°17′31″N   32°37′03″E
темп.,
°C
ветер,
м/с
пор.,
м/с
влажн.,
%
обл.,
%
осадки,
мм/ч
давл.,
гПа
погр.,
м
27 сентября, пн
пн2700:00+8с3791100 0.0 1023497
03:00+8с3796100 0.0 1024296
06:00+8с279868 0.0 1026294
09:00+9ссв259141 0.0 1027313
12:00+13ссв35675 0.0 1028854
15:00+14ссв465830 0.0 10281392
18:00+11ссв27765 0.0 1029178
21:00+7ссв28915 0.0 1029166
28 сентября, вт
вт2800:00+7св269213 0.0 1030133
03:00+6св25965 0.0 1031107
06:00+5св25975 0.0 1032102
09:00+8всв268511 0.0 1032284
12:00+10в3568100 0.0 1033850
15:00+11в3458100 0.0 10341329
18:00+9вюв257259 0.0 1034198
21:00+6вюв22845 0.0 103532
29 сентября, ср
ср2900:00+5юв228541 0.0 103717
03:00+4юв118778 0.0 103712
06:00+3юв119052 0.0 103710
09:00+6юв117660 0.0 1038114
12:00+11ю015968 0.0 1038602
15:00+12вюв015498 0.0 1036940
18:00+9св007295 0.0 103610
21:00+6всв11825 0.0 103610
30 сентября, чт
чт3000:00+5вюв11875 0.0 103710
03:00+4юв11915 0.0 103710
06:00+4юв11925 0.0 103711
09:00+7ююв12765 0.0 1036142
12:00+12ю23575 0.0 1036589
15:00+13ю23535 0.0 1035948
18:00+10ююв11735 0.0 103410
21:00+7ююв23846 0.0 103445
1 октября, пт
пт100:00+6ююв24935 0.0 103586
03:00+5ю24955 0.0 103486
06:00+4ююв25955 0.0 1034103
09:00+6ю368053 0.0 1034231
12:00+11ю365834 0.0 1033704
15:00+13ююз35515 0.0 10321032
18:00+9ю22715 0.0 103226
21:00+7ююв258292 0.0 1032104